Location: Unspecified
(0.0000°N, 0.0000°E)
Time: 00:10:04
(UTC+00:00)

Envisat - Pass Details

Date: 19 January 2021
Orbit: 764 x 766 km, 98.1° (Epoch: 16 January)

Event Time Altitude Azimuth Distance (km) Brightness Sun altitude
Rises 05:09:25 0° 18° (NNE) 3,214 6.2 -14.4°
Reaches altitude 10° 05:11:44 10° 21° (NNE) 2,291 5.5 -13.8°
Maximum altitude 05:16:44 64° 102° (ESE) 842 3.5 -12.6°
Drops below altitude 10° 05:21:45 10° 183° (S) 2,302 5.7 -11.5°
Sets 05:24:05 0° 186° (S) 3,230 6.4 -10.9°
